Дата Пункты Температура Давл., мм. Влажн., % Ветер Погодные явления
Воздуха Воды Направл. Скорость
09.02.15 07:00 Одесса -3.0 2.0 752 82 С-З 4 08 часов
09.02.15 04:00 Одесса -2.0 2.0 750 81 С-З 4 05 часов
09.02.15 01:00 Одесса -1.0 2.0 749 92 С-З 3 02 часа
08.02.15 10:00 Одесса -1.0 2.0 748 86 З 1 23 часа
08.02.15 07:00 Одесса -2.0 2.0 748 85 З 1 20 часов
08.02.15 04:00 Одесса -1.0 2.0 747 83 З 1 17 часов
08.02.15 01:00 Одесса -2.0 2.0 747 88 Ю-З 2 14 часов
08.02.15 10:00 Одесса -1.0 2.0 749 80 Ю-З 3 11 часов
08.02.15 07:00 Одесса -4.0 2.0 750 95 З 4 08 часов
08.02.15 04:00 Одесса -3.0 3.0 751 90 Ю-З 3 05 часов
08.02.15 01:00 Одесса -2.0 3.0 754 85 Ю-З 3 02 часа
07.02.15 10:00 Одесса -2.0 3.0 756 85 Ю-З 2 23 часа
07.02.15 07:00 Одесса -1.0 3.0 758 82 З 2 20 часов
07.02.15 04:00 Одесса -1.0 3.0 759 67 С-З 2 17 часов
07.02.15 01:00 Одесса -1.0 3.0 760 70 С-З 3 14 часов
07.02.15 10:00 Одесса -3.0 2.0 761 79 С 4 11 часов
07.02.15 07:00 Одесса -4.0 2.0 761 88 С 5 08 часов
07.02.15 04:00 Одесса -3.0 3.0 761 89 С 8 05 часов
07.02.15 01:00 Одесса -2.0 3.0 761 87 С 8 02 часа
06.02.15 10:00 Одесса -1.0 3.0 761 85 С 8 23 часа
Количество строк
351 352 353 354 355 356 357 358 359 360
Page 351 of 407